Location: Unspecified
(0.0000°N, 0.0000°E)
Time: 13:44:52
(UTC+00:00)

JUGNU - Pass Details

Date: 21 February 2020
Orbit: 836 x 864 km, 20.0° (Epoch: 01 April)

Event Time Altitude Azimuth Distance (km) Brightness Sun altitude
Exits shadow 03:29:19 11° 161° (SSE) 2,427 ? -40.2°
Drops below altitude 10° 03:29:55 10° 155° (SSE) 2,479 ? -40.1°
Sets 03:34:41 0° 122° (ESE) 3,421 ? -38.9°
